Wind_Speed
13 6 5 3 7 8 8 12 7 1 2 5 10 9 10 9 6 5 8 19 20 20 21 18 15 14 11 8 10 4 3 5 1 7 8 9 7 9 7 10 12 12 11
15 10 6 7 7 8 12 12 14 6 2 5 8 9 7 8 4 6 14 15 18 23 21 18 15 16 10 8 8 4 5 5 4 6 5 5 5 7 8 2 5 14 11
18 14 3 6 3 10 15 16 12 8 4 4 4 8 8 7 6 9 10 15 16 20 20 18 14 12 10 10 9 9 8 7 4 4 5 4 4 5 2 7 3 5 7
15 16 2 6 7 10 12 17 10 8 5 6 4 7 7 6 7 9 11 17 18 20 18 16 11 14 14 7 10 7 8 3 6 4 4 5 4 7 7 4 4 7 4
8 14 6 12 7 5 9 16 10 9 5 4 3 4 6 7 8 11 13 17 18 21 18 19 17 17 12 10 9 8 6 6 3 3 5 3 4 4 6 6 9 8 7
6 4 4 1 1 6 7 8 8 10 8 6 4 4 4 5 5 9 12 16 18 20 19 18 16 16 12 10 10 10 7 8 5 5 7 9 6 4 9 10 7 9 12
3 3 3 6 4 6 8 6 6 9 10 8 6 5 5 6 4 5 12 16 16 16 18 19 17 16 13 13 11 9 9 9 9 8 10 7 8 5 3 12 9 12 9
7 4 9 13 11 7 11 9 5 7 8 9 7 6 5 5 5 4 6 15 17 16 17 17 18 19 16 15 13 12 12 11 9 10 10 7 6 3 4 7 5 6 6
6 5 6 11 13 17 20 16 9 8 10 9 9 8 7 5 6 5 8 12 17 17 18 16 18 20 19 18 16 15 15 14 11 11 12 12 11 7 10 2 2 6 8
15 14 13 11 13 14 18 22 18 12 11 12 11 10 9 8 8 9 8 8 13 14 23 27 27 21 22 21 19 16 17 15 13 13 13 14 13 11 9 12 13 9 10
15 13 12 12 14 10 12 18 18 15 13 14 12 13 12 11 10 9 10 11 13 17 17 17 16 21 26 23 21 19 19 16 15 15 13 13 13 10 11 15 11 10 9
5 3 2 11 16 14 16 20 20 19 19 18 16 14 16 15 14 12 10 12 16 17 19 20 23 27 25 24 22 20 21 18 17 18 14 12 14 13 12 10 11 8 5
6 10 13 12 8 15 20 17 20 25 25 23 21 17 17 16 16 16 14 12 15 18 20 19 19 20 17 18 22 22 22 19 17 18 17 14 16 14 14 13 13 12 9
11 13 14 13 12 11 13 18 24 26 31 31 25 23 22 17 18 19 18 17 14 18 18 18 19 20 20 20 23 24 23 22 20 20 17 17 16 15 16 15 15 14 13
16 14 16 15 14 15 14 15 17 20 25 29 30 28 24 26 25 20 21 20 18 16 18 18 21 22 25 26 23 23 23 24 23 23 19 17 17 17 17 17 17 16 15
20 17 14 18 23 23 23 24 22 22 24 21 21 30 36 35 30 29 23 26 23 19 18 20 21 25 25 22 23 25 25 25 25 22 21 19 19 19 18 17 19 20 19
15 21 23 29 29 26 24 25 27 26 25 26 25 25 23 25 35 35 34 32 30 26 23 20 23 24 28 27 26 26 27 28 27 24 22 22 20 22 21 21 22 22 20
22 26 31 34 36 34 31 28 25 25 29 31 29 29 29 28 25 28 35 35 35 34 31 26 24 26 26 29 31 30 30 25 25 26 25 23 23 23 24 24 22 23 21
29 32 36 37 35 33 33 33 32 28 24 26 28 30 33 33 31 31 30 31 37 38 36 35 30 30 28 27 30 33 35 31 28 28 27 25 25 25 26 26 25 25 23
35 33 30 30 33 35 36 34 34 35 35 29 27 31 33 34 36 36 35 31 35 39 40 39 38 34 32 30 29 33 38 37 33 32 30 27 25 23 26 28 27 26 23
28 30 30 30 30 33 36 38 39 40 41 35 35 28 32 35 35 39 39 39 37 38 40 40 41 40 37 35 31 32 35 38 37 35 32 28 26 25 26 28 29 27 25
30 33 35 34 33 34 37 38 37 36 38 36 34 34 28 31 33 36 41 42 39 39 35 39 50 44 42 38 35 32 35 35 38 36 31 30 27 27 28 27 27 29 30
31 32 34 35 34 36 37 37 32 32 35 36 34 32 29 25 30 33 39 43 41 40 38 41 38 38 53 63 38 37 36 37 37 34 33 32 31 30 29 27 27 29 29
29 32 33 34 34 34 33 34 35 36 38 37 33 31 31 25 27 32 37 41 39 39 39 36 35 43 42 59 38 33 36 42 41 38 36 34 33 32 30 27 29 30 28
30 31 32 32 31 33 35 36 37 38 37 36 34 32 30 27 26 30 34 37 37 40 42 38 37 37 39 39 34 48 36 43 42 40 38 36 35 33 30 29 28 28 29
30 29 29 30 30 31 31 30 30 32 32 34 32 30 29 28 27 29 30 35 34 34 36 35 35 32 32 24 39 27 34 39 39 35 35 34 34 34 31 30 28 28 30
Wind_Direction
172 243 295 351 33 12 12 13 351 92 197 225 232 239 240 238 268 289 188 172 195 194 190 187 200 197 172 188 204 195 319 164 202 188 163 145 120 106 111 117 137 149 163
172 203 272 8 6 32 25 12 3 323 278 249 237 229 229 231 231 189 183 183 188 192 193 186 202 201 191 205 186 142 157 222 199 164 222 175 151 129 125 95 113 133 155
167 183 19 65 29 42 26 8 6 327 311 287 255 227 229 230 222 202 205 190 190 206 200 197 207 213 209 197 205 169 169 202 189 182 175 266 238 215 151 173 128 116 131
157 169 244 285 266 269 19 7 359 348 345 323 284 236 233 222 230 224 210 194 198 200 201 201 216 214 218 206 218 177 187 194 191 204 197 196 158 191 214 192 167 178 171
112 160 182 286 229 244 1 352 341 1 358 337 296 245 247 240 240 232 214 203 200 203 203 198 201 217 217 216 214 214 199 210 223 262 207 209 235 224 216 211 217 207 188
136 73 146 278 23 328 303 330 350 4 11 349 312 288 272 280 267 237 224 208 193 195 209 206 204 215 217 222 217 214 212 235 226 224 226 223 200 210 230 218 210 253 225
88 122 36 359 312 311 296 327 336 346 12 359 334 301 296 294 270 275 227 206 197 202 206 209 218 225 220 221 223 221 222 223 220 211 228 225 266 233 161 246 227 211 232
67 73 6 7 9 356 345 300 322 328 349 1 346 321 304 285 288 286 238 221 219 206 211 205 215 224 228 227 224 225 226 232 231 230 224 228 211 188 209 217 230 259 291
144 214 310 329 323 325 338 347 349 315 310 328 344 343 318 301 275 269 257 244 236 222 227 219 221 220 224 228 228 225 228 231 233 237 229 213 225 220 251 86 4 263 251
150 166 191 230 264 296 314 323 340 338 309 304 317 320 331 311 287 274 266 243 249 247 227 247 228 222 221 223 233 232 236 230 231 232 234 233 225 235 250 259 258 253 239
195 200 204 224 267 253 274 297 302 318 317 308 294 295 300 307 302 279 273 269 250 247 248 240 229 270 246 230 225 232 237 233 237 237 232 232 238 238 222 227 248 238 283
132 82 1 235 244 255 250 269 286 289 296 293 288 280 277 285 293 298 280 267 270 265 257 252 246 253 258 231 233 231 238 235 232 233 235 223 227 233 240 226 221 222 237
327 321 318 312 271 254 257 267 269 274 281 291 289 279 273 271 276 281 283 272 264 266 278 261 246 239 233 233 241 236 239 237 237 235 238 236 237 237 235 227 226 223 213
303 314 322 305 292 281 262 260 268 268 275 280 284 285 278 266 265 263 267 274 269 262 271 264 245 238 244 246 245 239 237 238 233 238 235 240 242 237 237 238 239 234 218
296 309 320 309 294 287 282 276 271 269 272 270 272 273 270 268 273 267 266 263 269 265 261 261 244 235 235 240 242 241 239 240 241 244 239 242 242 237 236 242 246 247 244
288 301 313 308 304 297 287 282 276 270 275 273 268 263 263 267 267 276 262 259 258 261 258 257 254 246 246 246 239 245 246 243 241 248 249 246 250 243 238 244 249 252 247
282 292 312 313 314 310 300 289 280 277 268 267 268 267 271 265 256 265 262 262 262 259 257 256 255 251 243 239 241 245 245 251 243 241 246 248 248 248 246 247 246 253 250
269 288 300 309 312 309 307 302 296 288 282 278 269 266 267 267 266 268 261 257 257 257 255 254 252 252 249 243 241 242 242 243 240 242 243 245 249 250 249 248 247 247 248
276 287 297 302 301 302 303 303 303 297 289 285 283 273 264 263 263 261 265 260 252 252 253 253 251 252 249 245 243 240 242 243 241 245 249 248 244 246 251 254 251 247 244
289 294 292 290 294 297 301 305 306 304 299 291 288 282 275 265 258 261 259 258 252 248 250 250 250 249 249 245 242 240 243 245 245 243 246 251 249 242 246 252 254 251 247
286 288 291 296 299 300 298 298 299 298 298 297 290 282 275 270 265 254 253 257 258 254 249 248 249 248 249 248 242 242 241 246 245 245 245 241 242 248 250 250 254 256 253
292 291 293 297 299 296 297 297 292 291 289 290 287 286 275 271 270 263 251 249 256 259 254 247 253 254 247 236 245 246 245 242 245 246 243 240 239 246 252 253 254 250 251
296 296 295 294 295 298 297 292 292 289 291 293 287 284 279 269 266 267 254 250 251 254 257 258 266 270 267 263 228 233 234 242 239 240 240 243 245 242 246 251 249 252 255
301 301 298 296 296 297 295 292 290 287 288 293 288 280 280 275 267 267 256 248 249 254 257 259 274 275 280 260 240 237 230 232 231 231 235 240 241 243 246 245 247 253 257
310 307 304 302 303 302 299 294 292 289 287 285 285 282 279 278 268 264 259 254 249 252 260 263 271 275 290 271 250 246 226 232 232 233 232 232 238 242 247 247 248 254 259
316 314 311 309 309 309 313 312 303 294 289 284 282 281 278 277 270 262 262 254 252 252 257 263 270 279 295 269 210 246 271 234 235 230 230 231 235 242 244 247 248 252 257
Height
3172 3174 3176 3180 3182 3182 3182 3183 3183 3182 3182 3183 3182 3183 3184 3185 3187 3187 3187 3190 3195 3199 3202 3207 3207 3210 3213 3214 3215 3215 3215 3216 3217 3215 3217 3216 3216 3217 3217 3218 3220 3220 3221
3171 3176 3176 3177 3179 3182 3183 3184 3184 3182 3181 3181 3180 3181 3182 3183 3185 3185 3188 3190 3193 3197 3201 3206 3208 3210 3213 3213 3214 3216 3216 3215 3215 3215 3215 3217 3218 3217 3218 3218 3219 3221 3222
3173 3174 3176 3176 3177 3179 3182 3184 3183 3182 3181 3180 3179 3179 3181 3182 3184 3186 3188 3192 3195 3198 3201 3203 3207 3208 3212 3212 3214 3216 3214 3215 3215 3214 3215 3217 3219 3218 3218 3218 3218 3218 3221
3172 3174 3177 3175 3183 3183 3181 3183 3182 3181 3180 3179 3179 3179 3180 3181 3182 3185 3187 3191 3193 3195 3200 3202 3204 3205 3211 3213 3212 3212 3212 3213 3213 3215 3217 3218 3219 3218 3218 3218 3217 3218 3219
3173 3173 3178 3178 3181 3178 3179 3182 3185 3183 3181 3180 3180 3180 3180 3180 3182 3183 3186 3190 3193 3194 3197 3201 3204 3206 3208 3210 3210 3213 3212 3213 3214 3214 3214 3218 3217 3219 3219 3218 3218 3217 3219
3173 3177 3178 3180 3178 3178 3179 3186 3186 3183 3181 3180 3179 3179 3180 3180 3181 3183 3185 3188 3191 3193 3196 3198 3201 3202 3206 3209 3210 3212 3212 3213 3214 3215 3215 3216 3216 3217 3217 3217 3216 3217 3218
3174 3176 3178 3179 3179 3179 3182 3185 3185 3183 3181 3180 3179 3179 3179 3180 3181 3183 3185 3187 3190 3193 3195 3198 3201 3201 3204 3206 3207 3210 3212 3213 3213 3216 3216 3216 3215 3214 3213 3215 3216 3216 3216
3175 3177 3178 3179 3180 3183 3183 3184 3183 3182 3181 3181 3180 3179 3179 3180 3181 3182 3184 3186 3190 3193 3196 3198 3199 3201 3201 3202 3204 3206 3208 3210 3212 3213 3213 3211 3213 3212 3212 3213 3213 3213 3213
3177 3177 3178 3179 3181 3181 3181 3182 3181 3180 3181 3181 3180 3179 3178 3179 3180 3181 3182 3185 3188 3192 3194 3195 3197 3198 3199 3200 3202 3203 3205 3207 3209 3210 3210 3210 3209 3210 3208 3193 3207 3211 3211
3176 3175 3177 3176 3177 3178 3178 3176 3177 3179 3179 3179 3180 3179 3178 3178 3179 3179 3179 3181 3183 3186 3189 3184 3192 3194 3194 3195 3198 3200 3201 3202 3204 3205 3206 3207 3207 3206 3206 3206 3205 3206 3206
3177 3177 3177 3174 3173 3173 3174 3174 3175 3177 3177 3177 3178 3179 3178 3177 3177 3177 3178 3179 3179 3179 3184 3188 3190 3191 3194 3193 3194 3196 3197 3198 3200 3201 3203 3203 3203 3204 3204 3204 3205 3203 3199
3177 3178 3178 3178 3175 3172 3173 3174 3172 3173 3174 3174 3173 3174 3176 3176 3175 3175 3175 3176 3176 3176 3178 3182 3185 3188 3188 3189 3191 3192 3193 3194 3196 3197 3199 3200 3200 3201 3201 3202 3202 3202 3201
3174 3175 3176 3176 3175 3174 3173 3173 3172 3168 3169 3169 3170 3170 3170 3172 3172 3172 3172 3173 3172 3172 3173 3176 3178 3181 3183 3184 3188 3189 3190 3191 3193 3195 3196 3197 3196 3197 3197 3198 3199 3200 3201
3170 3170 3171 3171 3170 3170 3169 3169 3168 3165 3164 3165 3165 3164 3165 3166 3167 3168 3168 3168 3168 3167 3168 3169 3172 3173 3176 3179 3183 3185 3186 3187 3188 3191 3191 3192 3193 3193 3194 3196 3197 3197 3198
3165 3166 3165 3164 3165 3165 3165 3164 3163 3162 3160 3162 3161 3160 3160 3159 3160 3164 3164 3165 3164 3164 3163 3163 3167 3169 3171 3174 3176 3178 3181 3182 3185 3186 3187 3187 3189 3189 3190 3192 3193 3194 3195
3160 3162 3161 3160 3158 3157 3157 3157 3157 3157 3155 3155 3155 3154 3155 3154 3155 3152 3147 3157 3159 3160 3160 3159 3160 3162 3164 3166 3168 3172 3173 3176 3179 3180 3181 3182 3182 3184 3186 3187 3188 3188 3190
3154 3152 3154 3152 3150 3149 3148 3147 3147 3146 3146 3146 3146 3146 3146 3146 3148 3147 3148 3150 3150 3152 3153 3155 3155 3155 3158 3161 3163 3165 3167 3169 3172 3174 3176 3176 3177 3178 3180 3181 3182 3182 3184
3151 3149 3147 3144 3142 3140 3139 3139 3138 3138 3136 3136 3137 3137 3137 3137 3138 3137 3138 3140 3143 3142 3143 3146 3149 3150 3151 3154 3157 3159 3160 3162 3164 3167 3169 3170 3171 3172 3173 3174 3176 3176 3177
3148 3145 3141 3138 3134 3132 3131 3130 3129 3129 3129 3128 3126 3126 3127 3128 3128 3128 3127 3127 3130 3131 3134 3137 3139 3141 3143 3145 3148 3151 3152 3154 3156 3158 3160 3163 3165 3166 3167 3168 3169 3170 3171
3139 3136 3134 3131 3129 3126 3123 3121 3120 3118 3117 3119 3118 3116 3115 3116 3117 3118 3118 3117 3118 3120 3124 3124 3127 3130 3134 3136 3139 3141 3143 3145 3148 3150 3152 3154 3157 3160 3161 3161 3162 3163 3166
3131 3128 3126 3125 3123 3120 3116 3113 3111 3108 3105 3105 3104 3107 3104 3103 3105 3105 3107 3107 3109 3109 3110 3112 3117 3119 3124 3128 3131 3132 3133 3135 3138 3141 3144 3146 3150 3152 3154 3155 3155 3157 3159
3125 3122 3118 3117 3115 3112 3108 3104 3101 3099 3095 3094 3092 3093 3094 3092 3092 3093 3094 3095 3097 3099 3102 3102 3107 3107 3106 3110 3119 3124 3126 3127 3128 3131 3136 3139 3141 3142 3144 3146 3147 3148 3149
3117 3115 3111 3107 3105 3102 3098 3093 3091 3088 3085 3083 3082 3081 3081 3082 3080 3079 3081 3083 3086 3088 3090 3091 3096 3095 3094 3065 3100 3105 3108 3118 3119 3123 3126 3129 3132 3133 3134 3136 3138 3139 3140
3109 3105 3101 3097 3095 3092 3088 3084 3081 3079 3075 3072 3071 3071 3070 3071 3070 3068 3068 3070 3074 3076 3077 3080 3082 3082 3080 3072 3087 3087 3095 3102 3105 3108 3113 3117 3120 3123 3125 3126 3128 3130 3131
3100 3096 3091 3088 3085 3082 3078 3075 3070 3066 3063 3061 3060 3060 3059 3060 3059 3058 3058 3059 3063 3066 3065 3068 3069 3071 3067 3058 3062 3074 3081 3089 3095 3097 3100 3104 3109 3112 3114 3117 3119 3120 3121
3092 3088 3084 3080 3076 3072 3068 3064 3060 3055 3052 3050 3049 3049 3049 3049 3048 3048 3048 3049 3052 3055 3055 3055 3055 3055 3053 3044 3047 3058 3069 3075 3079 3084 3090 3094 3098 3103 3106 3109 3110 3111 3112